This is the latest recevied weather packets stored in our database for station/object HP3ICC-23. If no packets are shown the sender has not sent any weather packets the latest 10 day(s).
| Time | Temp. | Humidity | Pressure | Rain* | Wind** | Luminosity | Snow |
|---|---|---|---|---|---|---|---|
| 1777597255 | 14.44° C | 80% | 1010 hPa | 0 mm | - | - | - |
| 1777597195 | 14.44° C | 80% | 1010 hPa | 0 mm | - | - | - |
| 1777596055 | 15° C | 80% | 1010 hPa | 0 mm | - | - | - |
| 1777595995 | 15° C | 80% | 1010 hPa | 0 mm | - | - | - |
| 1777594854 | 15.56° C | 80% | 1010 hPa | 0.25 mm | - | - | - |
| 1777594794 | 15.56° C | 80% | 1010 hPa | 0.25 mm | - | - | - |
| 1777593654 | 16.11° C | 80% | 1010 hPa | 1.52 mm | - | - | - |
| 1777593593 | 16.11° C | 80% | 1010 hPa | 1.52 mm | - | - | - |
| 1777592453 | 16.67° C | 83% | 1010 hPa | 1.78 mm | - | - | - |
| 1777592393 | 16.67° C | 83% | 1010 hPa | 1.78 mm | - | - | - |
| 1777591253 | 16.67° C | 79% | 1009 hPa | 0.25 mm | - | - | - |
| 1777591192 | 16.67° C | 79% | 1009 hPa | 0.25 mm | - | - | - |
| 1777590052 | 17.22° C | 79% | 1009 hPa | 0.76 mm | - | - | - |
| 1777589992 | 17.22° C | 79% | 1009 hPa | 0.76 mm | - | - | - |
| 1777588852 | 17.78° C | 81% | 1009 hPa | 1.02 mm | - | - | - |
| 1777588791 | 17.78° C | 81% | 1009 hPa | 1.02 mm | - | - | - |
| 1777587651 | 17.78° C | 77% | 1008 hPa | 3.3 mm | - | - | - |
| 1777587591 | 17.78° C | 77% | 1008 hPa | 3.3 mm | - | - | - |
| 1777586451 | 17.78° C | 78% | 1008 hPa | 0.76 mm | - | - | - |
| 1777586390 | 17.78° C | 78% | 1008 hPa | 0.76 mm | - | - | - |
| 1777585250 | 17.78° C | 77% | 1008 hPa | 0.76 mm | - | - | - |
| 1777585190 | 17.78° C | 77% | 1008 hPa | 0.76 mm | - | - | - |
| 1777584050 | 17.78° C | 75% | 1008 hPa | 0 mm | - | - | - |
| 1777583990 | 17.78° C | 75% | 1008 hPa | 0 mm | - | - | - |
| 1777582849 | 17.78° C | 75% | 1008 hPa | 0.25 mm | - | - | - |
* Rain latest hour (hover to see other rain measurements)
** Current wind speed in m/s (hover to see current wind gust speed)